Terminal Aerodrome Forecast
Issued by NWS

Home | Current Version | Previous Version | Text Only | Print | Product List | Glossary On
Versions: 1 2 3 4 5 6 7 8 9 10 11 12
000
FTUS46 KHNX 210521
TAFVIS
TAF
KVIS 210521Z 2106/2206 31009KT P6SM SCT150
     FM210900 VRB03KT P6SM SKC
     FM212300 31008KT P6SM SKC=

USA.gov is the U.S. government's official web portal to all federal, state and local government web resources and services.